Matala Airport

Jump to: basic info | weather | runways | comments

Related pages: nearby airports | nearby navaids | notams | map

Basic information (top)

Codes: FN18
Location: lon -14.727500, lat 15.014000, elev 4,120 ft / 1,256 m msl
Status: small_airport

Weather (top)

Current conditions for Lubango Airport 84nm (156km) W (rec'd 2014/10/23 15:00Z):

FNUB 231500Z 30010KT 9999 SCT030 27/13 Q1021

Airport forecast for Lubango Airport 84nm (156km) W (rec'd 2014/10/23 12:00Z):

TAF FNUB 231200Z 2312/2324 05015KT 9999 FEW020 SCT040 
      BECMG 2312/2314 27010KT SCT030 
      BECMG 2318/2320 VRB03KT 9000 NSC

Runways (top)

10/28: 8,015 x 98 ft (2,443 x 30 m) — paved — not lighted

Latest comments (top)

No comments yet for Matala Airport

More... (top)

See also NOTAMs and nearby airports and navaids, or visit the Matala Airport page at the main OurAirports website..